Hourly Data Report for July 28, 2021

LYNN LAKE
MANITOBA
Current Station Operator: NAVCAN

56°51'50.000" N
101°04'34.000" W
356.60 m
5061645
71078
YYL

Download Data

Hourly Data (July 2021)
Hourly Data Report for July 28, 2021
TIME
LST
Temp Definition
°C
Dew Point Definition
°C
Rel Hum Definition
%
Precip. Amount Definition
mm

Wind Dir Definition
10's deg

Wind Spd Definition
km/h
Visibility Definition
km
Stn Press Definition
kPa
Hmdx Definition


Wind Chill Definition


Weather Definition


00:00 14.5 12.0 85 0.0 29 13 16.1 96.87     LegendNANA
01:00 13.9 11.8 87 0.0 31 13 16.1 96.93     LegendNANA
02:00 13.5 11.2 86 0.0 31 17 16.1 96.99     LegendNANA
03:00 12.5 10.4 87 0.0 32 15 16.1 97.07     LegendNANA
04:00 11.8 10.1 89 0.0 33 15 16.1 97.14     LegendNANA
05:00 11.1 9.0 87 0.0 31 13 16.1 97.24     LegendNANA
06:00 11.9 9.3 84 0.0 32 17 16.1 97.31     LegendNANA
07:00 11.8 8.7 81 0.0 34 24 16.1 97.37     LegendNANA
08:00 12.2 8.4 77 0.0 33 22 16.1 97.46     LegendNANA
09:00 13.7 8.7 72 0.0 34 17 16.1 97.51     LegendNANA
10:00 16.0 8.3 60 0.0 1 26 16.1 97.56     LegendNANA
11:00 15.9 7.3 57 0.0 35 17 16.1 97.63     LegendNANA
12:00 15.9 8.4 61 0.0 33 32 16.1 97.66     LegendNANA
13:00 17.1 7.8 54 0.0 33 18 16.1 97.69     LegendNANA
14:00 16.3 7.9 57 0.0 34 21 16.1 97.71     LegendNANA
15:00 17.7 6.3 47 0.0 36 21 16.1 97.74     LegendNANA
16:00 17.4 5.5 45 0.0 33 21 16.1 97.74     LegendNANA
17:00 17.4 5.5 45 0.0 33 18 16.1 97.73     LegendNANA
18:00 17.1 5.6 46 0.0 32 18 16.1 97.73     LegendNANA
19:00 16.8 4.9 45 0.0 33 15 16.1 97.74     LegendNANA
20:00 15.7 5.4 50 0.0 35 8 16.1 97.74     LegendNANA
21:00 12.0 5.7 65 0.0 34 4 16.1 97.74     LegendNANA
22:00 10.1 6.8 80 0.0 21 4 16.1 97.76     LegendNANA
23:00 9.0 7.6 91 0.0 14 4 16.1 97.78     LegendNANA

Notes on Data Quality.

Legend

  • E = Estimated
  • M = Missing
  • NA = Not Available*
  • [empty] = Indicates an unobserved value
Date modified: